EST,Max TemperatureF,Mean TemperatureF,Min TemperatureF,Max Dew PointF,MeanDew PointF,Min DewpointF,Max Humidity, Mean Humidity, Min Humidity, Max Sea Level PressureIn, Mean Sea Level PressureIn, Min Sea Level PressureIn, Max VisibilityMiles, Mean VisibilityMiles, Min VisibilityMiles, Max Wind SpeedMPH, Mean Wind SpeedMPH, Max Gust SpeedMPH,PrecipitationIn, CloudCover, Events, WindDirDegrees
2011-12-1,54,42,29,28,24,19,78,52,26,30.36,30.29,30.14,10,10,10,8,2,10,0.00,0,,49
2011-12-2,63,47,30,30,24,14,85,51,16,30.48,30.39,30.35,10,10,10,14,5,17,0.00,0,,249
2011-12-3,54,45,36,31,28,21,64,51,38,30.62,30.56,30.49,10,10,10,15,6,17,0.00,0,,47
2011-12-4,59,45,31,39,35,28,89,66,43,30.53,30.45,30.36,10,10,8,8,1,12,0.00,2,,192
2011-12-5,63,52,41,57,48,36,100,83,66,30.35,30.23,30.15,10,9,4,13,5,15,T,6,Rain,148
2011-12-6,66,63,60,59,58,57,97,85,73,30.14,30.05,29.94,10,8,2,15,10,20,0.05,8,Rain,193
2011-12-7,64,51,38,59,54,30,90,80,70,29.96,29.72,29.50,10,6,1,37,15,47,0.62,7,Rain,217
2011-12-8,49,41,33,28,22,17,76,54,31,30.33,30.23,29.99,10,10,10,21,5,28,0.00,0,,352
2011-12-9,53,43,32,32,28,25,75,57,39,30.33,30.27,30.21,10,10,10,9,2,10,0.00,0,,286
2011-12-10,50,42,33,30,24,18,70,55,39,30.49,30.35,30.22,10,10,10,13,5,17,0.00,1,,3
2011-12-11,43,36,28,20,18,16,63,50,36,30.64,30.56,30.49,10,10,10,14,6,17,0.00,0,,42
2011-12-12,48,39,30,28,24,19,75,62,48,30.59,30.51,30.45,10,10,10,8,3,14,0.00,2,,17
2011-12-13,64,48,32,42,35,27,82,61,40,30.46,30.40,30.35,10,10,10,10,2,,0.00,2,,289
2011-12-14,60,54,47,42,39,35,77,64,50,30.40,30.34,30.27,10,10,9,9,5,,0.00,4,,150
2011-12-15,66,55,44,51,46,38,89,75,60,30.26,30.16,30.06,10,9,6,26,11,35,0.00,2,,215
2011-12-16,62,52,41,53,46,38,96,80,64,30.18,30.13,30.06,10,7,2,16,8,26,0.59,6,Rain,19
2011-12-17,50,42,33,37,28,20,92,64,36,30.22,30.18,30.12,10,10,10,13,4,18,0.00,2,,8
2011-12-18,49,38,26,26,24,21,78,57,36,30.33,30.28,30.21,10,10,10,13,5,16,0.00,1,,239
2011-12-19,56,43,29,33,27,24,78,57,35,30.33,30.26,30.19,10,10,10,20,8,26,0.00,0,,221
2011-12-20,60,50,39,51,44,33,89,73,57,30.22,30.15,30.11,10,9,2,16,8,29,T,4,,216
2011-12-21,62,58,53,59,56,51,97,91,84,30.11,30.01,29.91,10,5,1,22,11,30,0.90,8,Rain,212
2011-12-22,65,63,60,61,59,57,100,89,78,30.10,30.01,29.86,10,6,1,16,8,24,0.27,7,Rain,205
2011-12-23,63,53,42,58,41,33,86,64,42,30.26,30.11,29.83,10,10,10,22,8,30,T,2,,333
2011-12-24,50,42,33,33,30,26,89,66,42,30.44,30.37,30.26,10,10,10,12,2,16,0.00,0,,6
2011-12-25,48,40,31,38,34,28,89,77,64,30.39,30.28,30.15,10,10,10,14,7,18,0.00,2,,236
2011-12-26,51,43,34,31,25,22,79,56,32,30.37,30.28,30.17,10,10,10,21,6,25,0.00,0,,349
2011-12-27,57,49,40,52,38,28,93,74,55,30.18,29.77,29.54,10,8,2,31,13,40,0.59,6,Rain,201
2011-12-28,50,43,36,30,25,20,70,52,34,30.05,29.92,29.70,10,10,10,23,10,30,0.00,2,,279
2011-12-29,52,39,26,28,24,22,78,54,30,30.09,30.03,29.97,10,10,10,15,5,20,0.00,0,,205
2011-12-30,61,47,33,46,37,29,82,63,43,30.08,29.98,29.90,10,10,10,25,11,35,T,3,,218
2011-12-31,64,53,41,46,39,33,93,65,36,30.14,29.99,29.87,10,10,7,18,7,24,0.00,2,,248